星链-3333 (STARLINK-3333 )

导读 | 星芒AI

STARLINK-3333 是 SpaceX 星链计划中的一颗低轨通信卫星,属于星链第三代卫星群。该卫星旨在为全球用户提供高速、低延迟的互联网服务,尤其关注偏远和网络覆盖不足的地区。它采用先进推进系统和激光通信技术,以提升连接效率和系统稳定性。作为星链网络的重要组成部分,STARLINK-3333 有助于扩大卫星互联网的覆盖范围和性能,推动全球数字公平的实现。

基本信息
目录编号:
50805
目录名称:
STARLINK-3333
国际标识:
2022-001C
轨道中心:
EARTH
卫星名称:
星链-3333
卫星全名:
星链-3333 (STARLINK-3333 )
卫星状态:
在轨 (已飞行1444 天)
发射日期:
2022-01-06 UTC
国别 :
美国 (US)
星等 :
--
轨道信息
数据来源 国际轨道数据 AOE轨道数据
星历时间 2025-12-19T12:53:07+0800
1天前
查看轨道信息
2025-12-16T13:00:00+0800
4天前
查看轨道信息
半长轴 6917.878km 6917.825km
偏心率 0.000141 0.0001481
轨道倾角 53.217° 53.215°
近地点辐角 89.723° 87.610°
升交点赤经 160.436° 173.882°
平近点角 270.392° 194.126°
近地点 538.765km 538.665km
远地点 540.717km 540.715km
周期 95.437分钟 95.436分钟
每日圈数 15.08841 15.088583
详细信息
固有亮度:
5
最大亮度:
2.5
卫星平台:
Starlink v1.5
覆盖范围:
全球
运营商:
太空探索技术公司
运营商所在国:
美国
制造商(研发单位):
太空探索技术公司
制造商所在国:
美国
使用方式:
暂无
卫星简介
星链(Starlink)计划是由太空探索技术公司(SpaceX)提出的一个巨型低轨卫星互联网星座项目,计划在2019年至2024年间在太空搭建由约1.2万颗卫星组成的“星链”网络,其中1584颗将部署在地球上空550千米处的近地轨道,并从2020年开始工作。该卫星仍在工作。
2D轨道图
3D轨道图
轨道高度分析图
轨道倾角分析图
轨道综合分析图
查看轨道综合分析图